Vernal, UT

6:13 AM MST on November 15, 2019 (GMT -0700)
Vernal

Weather History for KVEL - June, 2019

Change the Weather History Date:

Saturday, June 8, 2019

  Actual Average Record
Temperature  
Mean Temperature 58 °F 63 °F  
Max Temperature 70 °F 78 °F 96 °F (1985)
Min Temperature 45 °F 49 °F 29 °F (1950)
Degree Days  
Heating Degree Days 8 4  
Month to date heating degree days 16 34  
Since 1 June heating degree days 16 34  
Since 1 July heating degree days 7497 7182  
Cooling Degree Days 0 2  
Month to date cooling degree days 3 11  
Year to date cooling degree days 4 20  
Since 1 June cooling degree days 3 11  
Growing Degree Days 8 (Base 50)    
Moisture  
Dew Point 28 °F    
Average Humidity 33    
Maximum Humidity 54    
Minimum Humidity 12    
Precipitation  
Precipitation 0.00 in 0.03 in 0.48 in (1974)
Month to date precipitation T 0.24  
Year to date precipitation 7.42 3.65  
Sea Level Pressure  
Sea Level Pressure 29.94 in    
Wind  
Wind Speed 9 mph ()    
Max Wind Speed 23 mph    
Max Gust Speed 30 mph    
Visibility 10.0 miles    
Events      
T = Trace of Precipitation, MM = Missing Value Source: Averaged Metar Reports

Daily Weather History Graph

Daily Weather History Graph

Search for Another Location

Airport or City:

Astronomy

Jun. 08, 2019 Rise Set
Actual Time 5:47 AM MDT 8:46 PM MDT
Civil Twilight 5:14 AM MDT 9:19 PM MDT
Nautical Twilight 4:33 AM MDT 10:01 PM MDT
Astronomical Twilight 3:44 AM MDT 10:50 PM MDT
Moon 11:19 AM MDT (6/8) 12:50 AM MDT (6/8)
Length of Visible Light 16h 04m
Length of Day
14h 58m
Waxing Crescent, 33% of the Moon is Illuminated
Jun 8
Waxing Crescent
Jun 10
First Quarter
Jun 17
Full
Jun 25
Last Quarter
Jul 2
New

Hourly Weather History & Observations

Time (MDT) Temp. Dew Point Humidity Pressure Visibility Wind Dir Wind Speed Gust Speed Precip Events Conditions
12:53 AM 66.0 °F 30.9 °F 27% 29.62 in 10.0 mi SW 9.2 mph - N/A   Clear
1:53 AM 63.0 °F 33.1 °F 33% 29.65 in 10.0 mi East 4.6 mph - N/A   Clear
2:53 AM 54.0 °F 35.1 °F 49% 29.70 in 10.0 mi ENE 13.8 mph 23.0 mph N/A   Clear
3:53 AM 53.1 °F 33.1 °F 47% 29.74 in 10.0 mi NE 15.0 mph 24.2 mph N/A   Clear
4:53 AM 50.0 °F 32.0 °F 50% 29.79 in 10.0 mi ENE 15.0 mph 25.3 mph N/A   Clear
5:53 AM 48.9 °F 32.0 °F 52% 29.86 in 10.0 mi ENE 9.2 mph - N/A   Clear
6:53 AM 51.1 °F 32.0 °F 48% 29.91 in 10.0 mi NE 12.7 mph - N/A   Partly Cloudy
7:53 AM 52.0 °F 33.1 °F 49% 29.95 in 10.0 mi NE 9.2 mph - N/A   Mostly Cloudy
8:53 AM 57.0 °F 34.0 °F 42% 29.96 in 10.0 mi ENE 12.7 mph - N/A   Partly Cloudy
9:53 AM 57.9 °F 36.0 °F 44% 29.95 in 10.0 mi SSE 6.9 mph - N/A   Clear
10:53 AM 61.0 °F 34.0 °F 36% 29.93 in 10.0 mi East 6.9 mph - N/A   Scattered Clouds
11:53 AM 64.0 °F 35.1 °F 34% 29.94 in 10.0 mi Variable 3.5 mph - N/A   Clear
12:53 PM 63.0 °F 34.0 °F 34% 29.94 in 10.0 mi WSW 6.9 mph - N/A   Overcast
1:53 PM 63.0 °F 28.0 °F 27% 29.95 in 10.0 mi North - - N/A   Overcast
2:53 PM 68.0 °F 24.1 °F 19% 29.96 in 10.0 mi WSW 12.7 mph 21.9 mph N/A   Scattered Clouds
3:53 PM 69.1 °F 21.0 °F 16% 29.95 in 10.0 mi WSW 17.3 mph 27.6 mph N/A   Clear
4:53 PM 69.1 °F 16.0 °F 13% 29.95 in 10.0 mi West 15.0 mph 24.2 mph N/A   Clear
5:53 PM 66.9 °F 17.1 °F 15% 29.97 in 10.0 mi West 12.7 mph 27.6 mph N/A   Clear
6:53 PM 66.0 °F 19.0 °F 17% 29.99 in 10.0 mi WNW 10.4 mph 19.6 mph N/A   Clear
7:53 PM 62.1 °F 21.9 °F 21% 30.05 in 10.0 mi North 11.5 mph 20.7 mph N/A   Mostly Cloudy
8:53 PM 55.9 °F 17.1 °F 22% 30.10 in 10.0 mi North 9.2 mph 21.9 mph N/A   Scattered Clouds
9:53 PM 51.1 °F 23.0 °F 33% 30.17 in 10.0 mi NNE 6.9 mph - N/A   Clear
10:53 PM 48.9 °F 21.9 °F 35% 30.22 in 10.0 mi North 9.2 mph - N/A   Clear
11:53 PM 46.9 °F 23.0 °F 39% 30.25 in 10.0 mi ENE 9.2 mph - N/A   Clear